Year,Month,Day,Hour,Minute,Value (Times are PST for temperature in C)
2023,05,15,00,00,19.00
2023,05,15,00,01,19.00
2023,05,15,00,02,19.00
2023,05,15,00,03,18.90
2023,05,15,00,04,18.90
2023,05,15,00,05,18.90
2023,05,15,00,06,18.90
2023,05,15,00,07,18.90
2023,05,15,00,08,18.90
2023,05,15,00,09,18.90
2023,05,15,00,10,19.00
2023,05,15,00,11,19.00
2023,05,15,00,12,19.10
2023,05,15,00,13,19.10
2023,05,15,00,14,19.00
2023,05,15,00,15,19.00
2023,05,15,00,16,18.90
2023,05,15,00,17,18.90
2023,05,15,00,18,19.00
2023,05,15,00,19,19.10
2023,05,15,00,20,19.10
2023,05,15,00,21,19.10
2023,05,15,00,22,19.10
2023,05,15,00,23,19.10
2023,05,15,00,24,19.10
2023,05,15,00,25,19.10
2023,05,15,00,26,19.00
2023,05,15,00,27,19.00
2023,05,15,00,28,19.10
2023,05,15,00,29,19.10
2023,05,15,00,30,19.20
2023,05,15,00,31,19.20
2023,05,15,00,32,19.20
2023,05,15,00,33,19.20
2023,05,15,00,34,19.20
2023,05,15,00,35,19.10
2023,05,15,00,36,19.10
2023,05,15,00,37,19.10
2023,05,15,00,38,19.10
2023,05,15,00,39,19.20
2023,05,15,00,40,19.20
2023,05,15,00,41,19.20
2023,05,15,00,42,19.20
2023,05,15,00,43,19.20
2023,05,15,00,44,19.10
2023,05,15,00,45,19.10
2023,05,15,00,46,19.10
2023,05,15,00,47,19.10
2023,05,15,00,48,19.00
2023,05,15,00,49,19.00
2023,05,15,00,50,18.90
2023,05,15,00,51,18.80
2023,05,15,00,52,18.80
2023,05,15,00,53,18.70
2023,05,15,00,54,18.70
2023,05,15,00,55,18.70
2023,05,15,00,56,18.70
2023,05,15,00,57,18.70
2023,05,15,00,58,18.60
2023,05,15,00,59,18.60
2023,05,15,01,00,18.60
2023,05,15,01,01,18.70
2023,05,15,01,02,18.70
2023,05,15,01,03,18.80
2023,05,15,01,04,18.80
2023,05,15,01,05,18.80
2023,05,15,01,06,18.80
2023,05,15,01,07,18.80
2023,05,15,01,08,18.80
2023,05,15,01,09,18.80
2023,05,15,01,10,18.80
2023,05,15,01,11,18.90
2023,05,15,01,12,18.90
2023,05,15,01,13,19.00
2023,05,15,01,14,19.00
2023,05,15,01,15,19.10
2023,05,15,01,16,19.10
2023,05,15,01,17,19.10
2023,05,15,01,18,19.30
2023,05,15,01,19,19.30
2023,05,15,01,20,19.30
2023,05,15,01,21,19.30
2023,05,15,01,22,19.30
2023,05,15,01,23,19.30
2023,05,15,01,24,19.40
2023,05,15,01,25,19.30
2023,05,15,01,26,19.40
2023,05,15,01,27,19.40
2023,05,15,01,28,19.40
2023,05,15,01,29,19.40
2023,05,15,01,30,19.40
2023,05,15,01,31,19.40
2023,05,15,01,32,19.40
2023,05,15,01,33,19.40
2023,05,15,01,34,19.40
2023,05,15,01,35,19.40
2023,05,15,01,36,19.40
2023,05,15,01,37,19.40
2023,05,15,01,38,19.40
2023,05,15,01,39,19.40
2023,05,15,01,40,19.40
2023,05,15,01,41,19.40
2023,05,15,01,42,19.40
2023,05,15,01,43,19.40
2023,05,15,01,44,19.30
2023,05,15,01,45,19.30
2023,05,15,01,46,19.30
2023,05,15,01,47,19.30
2023,05,15,01,48,19.30
2023,05,15,01,49,19.30
2023,05,15,01,50,19.30
2023,05,15,01,51,19.30
2023,05,15,01,52,19.30
2023,05,15,01,53,19.30
2023,05,15,01,54,19.30
2023,05,15,01,55,19.30
2023,05,15,01,56,19.30
2023,05,15,01,57,19.30
2023,05,15,01,58,19.30
2023,05,15,01,59,19.20
2023,05,15,02,00,19.20
2023,05,15,02,01,19.20
2023,05,15,02,02,19.10
2023,05,15,02,03,19.10
2023,05,15,02,04,19.00
2023,05,15,02,05,19.00
2023,05,15,02,06,18.90
2023,05,15,02,07,18.90
2023,05,15,02,08,18.90
2023,05,15,02,09,18.80
2023,05,15,02,10,18.80
2023,05,15,02,11,18.80
2023,05,15,02,12,18.80
2023,05,15,02,13,18.80
2023,05,15,02,14,18.70
2023,05,15,02,15,18.70
2023,05,15,02,16,18.70
2023,05,15,02,17,18.70
2023,05,15,02,18,18.70
2023,05,15,02,19,18.70
2023,05,15,02,20,18.70
2023,05,15,02,21,18.60
2023,05,15,02,22,18.60
2023,05,15,02,23,18.60
2023,05,15,02,24,18.60
2023,05,15,02,25,18.60
2023,05,15,02,26,18.60
2023,05,15,02,27,18.60
2023,05,15,02,28,18.60
2023,05,15,02,29,18.50
2023,05,15,02,30,18.50
2023,05,15,02,31,18.50
2023,05,15,02,32,18.50
2023,05,15,02,33,18.50
2023,05,15,02,34,18.50
2023,05,15,02,35,18.40
2023,05,15,02,36,18.40
2023,05,15,02,37,18.40
2023,05,15,02,38,18.30
2023,05,15,02,39,18.30
2023,05,15,02,40,18.30
2023,05,15,02,41,18.30
2023,05,15,02,42,18.30
2023,05,15,02,43,18.30
2023,05,15,02,44,18.30
2023,05,15,02,45,18.20
2023,05,15,02,46,18.20
2023,05,15,02,47,18.20
2023,05,15,02,48,18.20
2023,05,15,02,49,18.20
2023,05,15,02,50,18.20
2023,05,15,02,51,18.20
2023,05,15,02,52,18.20
2023,05,15,02,53,18.20
2023,05,15,02,54,18.20
2023,05,15,02,55,18.20
2023,05,15,02,56,18.20
2023,05,15,02,57,18.20
2023,05,15,02,58,18.20
2023,05,15,02,59,18.20
2023,05,15,03,00,18.20
2023,05,15,03,01,18.20
2023,05,15,03,02,18.20
2023,05,15,03,03,18.20
2023,05,15,03,04,18.20
2023,05,15,03,05,18.30
2023,05,15,03,06,18.30
2023,05,15,03,07,18.30
2023,05,15,03,08,18.30
2023,05,15,03,09,18.30
2023,05,15,03,10,18.30
2023,05,15,03,11,18.30
2023,05,15,03,12,18.30
2023,05,15,03,13,18.30
2023,05,15,03,14,18.30
2023,05,15,03,15,18.30
2023,05,15,03,16,18.30
2023,05,15,03,17,18.30
2023,05,15,03,18,18.30
2023,05,15,03,19,18.30
2023,05,15,03,20,18.40
2023,05,15,03,21,18.40
2023,05,15,03,22,18.40
2023,05,15,03,23,18.40
2023,05,15,03,24,18.40
2023,05,15,03,25,18.50
2023,05,15,03,26,18.50
2023,05,15,03,27,18.50
2023,05,15,03,28,18.50
2023,05,15,03,29,18.50
2023,05,15,03,30,18.60
2023,05,15,03,31,18.60
2023,05,15,03,32,18.60
2023,05,15,03,33,18.60
2023,05,15,03,34,18.60
2023,05,15,03,35,18.60
2023,05,15,03,36,18.60
2023,05,15,03,37,18.60
2023,05,15,03,38,18.60
2023,05,15,03,39,18.60
2023,05,15,03,40,18.60
2023,05,15,03,41,18.70
2023,05,15,03,42,18.70
2023,05,15,03,43,18.70
2023,05,15,03,44,18.70
2023,05,15,03,45,18.70
2023,05,15,03,46,18.60
2023,05,15,03,47,18.60
2023,05,15,03,48,18.60
2023,05,15,03,49,18.50
2023,05,15,03,50,18.50
2023,05,15,03,51,18.40
2023,05,15,03,52,18.40
2023,05,15,03,53,18.40
2023,05,15,03,54,18.40
2023,05,15,03,55,18.40
2023,05,15,03,56,18.40
2023,05,15,03,57,18.40
2023,05,15,03,58,18.40
2023,05,15,03,59,18.40
2023,05,15,04,00,18.40
2023,05,15,04,01,18.30
2023,05,15,04,02,18.30
2023,05,15,04,03,18.30
2023,05,15,04,04,18.30
2023,05,15,04,05,18.30
2023,05,15,04,06,18.20
2023,05,15,04,07,18.20
2023,05,15,04,08,18.10
2023,05,15,04,09,18.10
2023,05,15,04,10,18.10
2023,05,15,04,11,18.00
2023,05,15,04,12,18.00
2023,05,15,04,13,17.90
2023,05,15,04,14,17.90
2023,05,15,04,15,17.90
2023,05,15,04,16,17.80
2023,05,15,04,17,17.80
2023,05,15,04,18,17.80
2023,05,15,04,19,17.80
2023,05,15,04,20,17.80
2023,05,15,04,21,17.80
2023,05,15,04,22,17.80
2023,05,15,04,23,17.80
2023,05,15,04,24,17.80
2023,05,15,04,25,17.90
2023,05,15,04,26,17.90
2023,05,15,04,27,18.00
2023,05,15,04,28,18.00
2023,05,15,04,29,18.00
2023,05,15,04,30,18.10
2023,05,15,04,31,18.10
2023,05,15,04,32,18.10
2023,05,15,04,33,18.10
2023,05,15,04,34,18.20
2023,05,15,04,35,18.20
2023,05,15,04,36,18.20
2023,05,15,04,37,18.20
2023,05,15,04,38,18.20
2023,05,15,04,39,18.20
2023,05,15,04,40,18.20
2023,05,15,04,41,18.20
2023,05,15,04,42,18.20
2023,05,15,04,43,18.20
2023,05,15,04,44,18.10
2023,05,15,04,45,18.10
2023,05,15,04,46,18.10
2023,05,15,04,47,18.10
2023,05,15,04,48,18.10
2023,05,15,04,49,18.10
2023,05,15,04,50,18.10
2023,05,15,04,51,18.10
2023,05,15,04,52,18.10
2023,05,15,04,53,18.10
2023,05,15,04,54,18.00
2023,05,15,04,55,18.00
2023,05,15,04,56,18.00
2023,05,15,04,57,17.90
2023,05,15,04,58,17.90
2023,05,15,04,59,17.90
2023,05,15,05,00,17.90
2023,05,15,05,01,17.90
2023,05,15,05,02,17.90
2023,05,15,05,03,17.90
2023,05,15,05,04,17.90
2023,05,15,05,05,18.00
2023,05,15,05,06,18.00
2023,05,15,05,07,18.10
2023,05,15,05,08,18.20
2023,05,15,05,09,18.20
2023,05,15,05,10,18.30
2023,05,15,05,11,18.40
2023,05,15,05,12,18.50
2023,05,15,05,13,18.60
2023,05,15,05,14,18.70
2023,05,15,05,15,18.80
2023,05,15,05,16,18.80
2023,05,15,05,17,18.80
2023,05,15,05,18,18.90
2023,05,15,05,19,18.90
2023,05,15,05,20,18.90
2023,05,15,05,21,18.80
2023,05,15,05,22,18.80
2023,05,15,05,23,18.70
2023,05,15,05,24,18.70
2023,05,15,05,25,18.60
2023,05,15,05,26,18.50
2023,05,15,05,27,18.50
2023,05,15,05,28,18.40
2023,05,15,05,29,18.30
2023,05,15,05,30,18.30
2023,05,15,05,31,18.20
2023,05,15,05,32,18.20
2023,05,15,05,33,18.10
2023,05,15,05,34,18.10
2023,05,15,05,35,18.10
2023,05,15,05,36,18.00
2023,05,15,05,37,18.00
2023,05,15,05,38,18.00
2023,05,15,05,39,17.90
2023,05,15,05,40,17.90
2023,05,15,05,41,17.80
2023,05,15,05,42,17.80
2023,05,15,05,43,17.80
2023,05,15,05,44,17.70
2023,05,15,05,45,17.70
2023,05,15,05,46,17.70
2023,05,15,05,47,17.70
2023,05,15,05,48,17.60
2023,05,15,05,49,17.60
2023,05,15,05,50,17.60
2023,05,15,05,51,17.50
2023,05,15,05,52,17.50
2023,05,15,05,53,17.50
2023,05,15,05,54,17.50
2023,05,15,05,55,17.40
2023,05,15,05,56,17.40
2023,05,15,05,57,17.40
2023,05,15,05,58,17.50
2023,05,15,05,59,17.50
2023,05,15,06,00,17.60
2023,05,15,06,01,17.60
2023,05,15,06,02,17.60
2023,05,15,06,03,17.70
2023,05,15,06,04,17.70
2023,05,15,06,05,17.70
2023,05,15,06,06,17.80
2023,05,15,06,07,17.80
2023,05,15,06,08,17.80
2023,05,15,06,09,17.90
2023,05,15,06,10,17.90
2023,05,15,06,11,17.90
2023,05,15,06,12,18.00
2023,05,15,06,13,18.00
2023,05,15,06,14,18.10
2023,05,15,06,15,18.20
2023,05,15,06,16,18.20
2023,05,15,06,17,18.20
2023,05,15,06,18,18.20
2023,05,15,06,19,18.20
2023,05,15,06,20,18.20
2023,05,15,06,21,18.20
2023,05,15,06,22,18.10
2023,05,15,06,23,18.10
2023,05,15,06,24,18.10
2023,05,15,06,25,18.10
2023,05,15,06,26,18.20
2023,05,15,06,27,18.20
2023,05,15,06,28,18.20
2023,05,15,06,29,18.20
2023,05,15,06,30,18.20
2023,05,15,06,31,18.20
2023,05,15,06,32,18.30
2023,05,15,06,33,18.30
2023,05,15,06,34,18.30
2023,05,15,06,35,18.30
2023,05,15,06,36,18.30
2023,05,15,06,37,18.30
2023,05,15,06,38,18.30
2023,05,15,06,39,18.40
2023,05,15,06,40,18.40
2023,05,15,06,41,18.40
2023,05,15,06,42,18.40
2023,05,15,06,43,18.40
2023,05,15,06,44,18.40
2023,05,15,06,45,18.40
2023,05,15,06,46,18.40
2023,05,15,06,47,18.50
2023,05,15,06,48,18.50
2023,05,15,06,49,18.50
2023,05,15,06,50,18.60
2023,05,15,06,51,18.70
2023,05,15,06,52,18.80
2023,05,15,06,53,18.90
2023,05,15,06,54,19.00
2023,05,15,06,55,19.10
2023,05,15,06,56,19.10
2023,05,15,06,57,19.20
2023,05,15,06,58,19.30
2023,05,15,06,59,19.40
2023,05,15,07,00,19.50
2023,05,15,07,01,19.50
2023,05,15,07,02,19.60
2023,05,15,07,03,19.60
2023,05,15,07,04,19.70
2023,05,15,07,05,19.70
2023,05,15,07,06,19.70
2023,05,15,07,07,19.80
2023,05,15,07,08,19.80
2023,05,15,07,09,19.90
2023,05,15,07,10,19.90
2023,05,15,07,11,19.90
2023,05,15,07,12,19.90
2023,05,15,07,13,19.90
2023,05,15,07,14,19.90
2023,05,15,07,15,19.90
2023,05,15,07,16,19.90
2023,05,15,07,17,19.90
2023,05,15,07,18,19.90
2023,05,15,07,19,19.90
2023,05,15,07,20,20.00
2023,05,15,07,21,20.00
2023,05,15,07,22,20.00
2023,05,15,07,23,20.00
2023,05,15,07,24,20.10
2023,05,15,07,25,20.10
2023,05,15,07,26,20.10
2023,05,15,07,27,20.10
2023,05,15,07,28,20.20
2023,05,15,07,29,20.20
2023,05,15,07,30,20.20
2023,05,15,07,31,20.20
2023,05,15,07,32,20.20
2023,05,15,07,33,20.20
2023,05,15,07,34,20.20
2023,05,15,07,35,20.30
2023,05,15,07,36,20.30
2023,05,15,07,37,20.30
2023,05,15,07,38,20.30
2023,05,15,07,39,20.40
2023,05,15,07,40,20.40
2023,05,15,07,41,20.40
2023,05,15,07,42,20.50
2023,05,15,07,43,20.60
2023,05,15,07,44,20.60
2023,05,15,07,45,20.60
2023,05,15,07,46,20.70
2023,05,15,07,47,20.70
2023,05,15,07,48,20.70
2023,05,15,07,49,20.70
2023,05,15,07,50,20.80
2023,05,15,07,51,20.90
2023,05,15,07,52,20.90
2023,05,15,07,53,21.00
2023,05,15,07,54,21.00
2023,05,15,07,55,21.10
2023,05,15,07,56,21.10
2023,05,15,07,57,21.10
2023,05,15,07,58,21.20
2023,05,15,07,59,21.30
2023,05,15,08,00,21.30
2023,05,15,08,01,21.40
2023,05,15,08,02,21.40
2023,05,15,08,03,21.40
2023,05,15,08,04,21.50
2023,05,15,08,05,21.50
2023,05,15,08,06,21.50
2023,05,15,08,07,21.50
2023,05,15,08,08,21.60
2023,05,15,08,09,21.60
2023,05,15,08,10,21.70
2023,05,15,08,11,21.70
2023,05,15,08,12,21.80
2023,05,15,08,13,21.80
2023,05,15,08,14,21.90
2023,05,15,08,15,21.90
2023,05,15,08,16,22.00
2023,05,15,08,17,22.10
2023,05,15,08,18,22.20
2023,05,15,08,19,22.20
2023,05,15,08,20,22.30
2023,05,15,08,21,22.40
2023,05,15,08,22,22.50
2023,05,15,08,23,22.50
2023,05,15,08,24,22.60
2023,05,15,08,25,22.60
2023,05,15,08,26,22.70
2023,05,15,08,27,22.80
2023,05,15,08,28,22.80
2023,05,15,08,29,22.80
2023,05,15,08,30,22.80
2023,05,15,08,31,22.80
2023,05,15,08,32,22.80
2023,05,15,08,33,22.80
2023,05,15,08,34,22.80
2023,05,15,08,35,22.80
2023,05,15,08,36,22.80
2023,05,15,08,37,22.80
2023,05,15,08,38,22.90
2023,05,15,08,39,23.00
2023,05,15,08,40,23.10
2023,05,15,08,41,23.20
2023,05,15,08,42,23.20
2023,05,15,08,43,23.20
2023,05,15,08,44,23.20
2023,05,15,08,45,23.20
2023,05,15,08,46,23.20
2023,05,15,08,47,23.10
2023,05,15,08,48,23.10
2023,05,15,08,49,23.00
2023,05,15,08,50,23.00
2023,05,15,08,51,23.00
2023,05,15,08,52,22.90
2023,05,15,08,53,22.90
2023,05,15,08,54,22.90
2023,05,15,08,55,22.90
2023,05,15,08,56,22.80
2023,05,15,08,57,22.80
2023,05,15,08,58,22.80
2023,05,15,08,59,22.80
2023,05,15,09,00,22.80
2023,05,15,09,01,22.80
2023,05,15,09,02,22.80
2023,05,15,09,03,22.80
2023,05,15,09,04,22.90
2023,05,15,09,05,22.90
2023,05,15,09,06,23.00
2023,05,15,09,07,23.10
2023,05,15,09,08,23.10
2023,05,15,09,09,23.20
2023,05,15,09,10,23.30
2023,05,15,09,11,23.30
2023,05,15,09,12,23.40
2023,05,15,09,13,23.50
2023,05,15,09,14,23.60
2023,05,15,09,15,23.70
2023,05,15,09,16,23.70
2023,05,15,09,17,23.80
2023,05,15,09,18,23.80
2023,05,15,09,19,23.90
2023,05,15,09,20,23.90
2023,05,15,09,21,24.00
2023,05,15,09,22,24.10
2023,05,15,09,23,24.20
2023,05,15,09,24,24.30
2023,05,15,09,25,24.30
2023,05,15,09,26,24.20
2023,05,15,09,27,24.20
2023,05,15,09,28,24.10
2023,05,15,09,29,24.10
2023,05,15,09,30,24.00
2023,05,15,09,31,24.00
2023,05,15,09,32,24.10
2023,05,15,09,33,24.10
2023,05,15,09,34,24.10
2023,05,15,09,35,24.10
2023,05,15,09,36,24.10
2023,05,15,09,37,24.10
2023,05,15,09,38,24.20
2023,05,15,09,39,24.20
2023,05,15,09,40,24.30
2023,05,15,09,41,24.30
2023,05,15,09,42,24.40
2023,05,15,09,43,24.50
2023,05,15,09,44,24.50
2023,05,15,09,45,24.60
2023,05,15,09,46,24.70
2023,05,15,09,47,24.70
2023,05,15,09,48,24.70
2023,05,15,09,49,24.80
2023,05,15,09,50,24.80
2023,05,15,09,51,24.80
2023,05,15,09,52,24.90
2023,05,15,09,53,24.90
2023,05,15,09,54,24.90
2023,05,15,09,55,25.00
2023,05,15,09,56,25.00
2023,05,15,09,57,25.00
2023,05,15,09,58,25.00
2023,05,15,09,59,25.00
2023,05,15,10,00,24.90
2023,05,15,10,01,24.90
2023,05,15,10,02,24.80
2023,05,15,10,03,24.70
2023,05,15,10,04,24.70
2023,05,15,10,05,24.60
2023,05,15,10,06,24.60
2023,05,15,10,07,24.60
2023,05,15,10,08,24.60
2023,05,15,10,09,24.60
2023,05,15,10,10,24.70
2023,05,15,10,11,24.70
2023,05,15,10,12,24.70
2023,05,15,10,13,24.70
2023,05,15,10,14,24.80
2023,05,15,10,15,24.80
2023,05,15,10,16,24.80
2023,05,15,10,17,24.80
2023,05,15,10,18,24.80
2023,05,15,10,19,24.80
2023,05,15,10,20,24.90
2023,05,15,10,21,24.90
2023,05,15,10,22,24.90
2023,05,15,10,23,24.90
2023,05,15,10,24,24.80
2023,05,15,10,25,24.80
2023,05,15,10,26,24.80
2023,05,15,10,27,24.80
2023,05,15,10,28,24.80
2023,05,15,10,29,24.80
2023,05,15,10,30,24.80
2023,05,15,10,31,24.80
2023,05,15,10,32,24.80
2023,05,15,10,33,24.90
2023,05,15,10,34,24.90
2023,05,15,10,35,25.00
2023,05,15,10,36,25.00
2023,05,15,10,37,25.00
2023,05,15,10,38,25.00
2023,05,15,10,39,25.00
2023,05,15,10,40,25.10
2023,05,15,10,41,25.10
2023,05,15,10,42,25.20
2023,05,15,10,43,25.20
2023,05,15,10,44,25.10
2023,05,15,10,45,25.10
2023,05,15,10,46,25.10
2023,05,15,10,47,25.00
2023,05,15,10,48,25.10
2023,05,15,10,49,25.00
2023,05,15,10,50,25.00
2023,05,15,10,51,25.10
2023,05,15,10,52,25.10
2023,05,15,10,53,25.10
2023,05,15,10,54,25.20
2023,05,15,10,55,25.30
2023,05,15,10,56,25.40
2023,05,15,10,57,25.50
2023,05,15,10,58,25.50
2023,05,15,10,59,25.60
2023,05,15,11,00,25.60
2023,05,15,11,01,25.60
2023,05,15,11,02,25.50
2023,05,15,11,03,25.50
2023,05,15,11,04,25.60
2023,05,15,11,05,25.60
2023,05,15,11,06,25.60
2023,05,15,11,07,25.50
2023,05,15,11,08,25.50
2023,05,15,11,09,25.60
2023,05,15,11,10,25.60
2023,05,15,11,11,25.60
2023,05,15,11,12,25.60
2023,05,15,11,13,25.60
2023,05,15,11,14,25.70
2023,05,15,11,15,25.70
2023,05,15,11,16,25.70
2023,05,15,11,17,25.70
2023,05,15,11,18,25.70
2023,05,15,11,19,25.60
2023,05,15,11,20,25.60
2023,05,15,11,21,25.50
2023,05,15,11,22,25.50
2023,05,15,11,23,25.40
2023,05,15,11,24,25.40
2023,05,15,11,25,25.50
2023,05,15,11,26,25.60
2023,05,15,11,27,25.60
2023,05,15,11,28,25.70
2023,05,15,11,29,25.70
2023,05,15,11,30,25.80
2023,05,15,11,31,25.80
2023,05,15,11,32,25.80
2023,05,15,11,33,25.90
2023,05,15,11,34,25.80
2023,05,15,11,35,25.80
2023,05,15,11,36,25.80
2023,05,15,11,37,25.70
2023,05,15,11,38,25.70
2023,05,15,11,39,25.70
2023,05,15,11,40,25.70
2023,05,15,11,41,25.80
2023,05,15,11,42,25.80
2023,05,15,11,43,25.80
2023,05,15,11,44,25.80
2023,05,15,11,45,25.80
2023,05,15,11,46,25.90
2023,05,15,11,47,25.90
2023,05,15,11,48,26.00
2023,05,15,11,49,26.00
2023,05,15,11,50,26.00
2023,05,15,11,51,26.00
2023,05,15,11,52,25.90
2023,05,15,11,53,25.90
2023,05,15,11,54,25.90
2023,05,15,11,55,25.90
2023,05,15,11,56,25.80
2023,05,15,11,57,25.90
2023,05,15,11,58,26.00
2023,05,15,11,59,26.00
2023,05,15,12,00,26.00
2023,05,15,12,01,26.00
2023,05,15,12,02,26.00
2023,05,15,12,03,26.00
2023,05,15,12,04,26.10
2023,05,15,12,05,26.20
2023,05,15,12,06,26.30
2023,05,15,12,07,26.30
2023,05,15,12,08,26.40
2023,05,15,12,09,26.40
2023,05,15,12,10,26.40
2023,05,15,12,11,26.40
2023,05,15,12,12,26.40
2023,05,15,12,13,26.40
2023,05,15,12,14,26.40
2023,05,15,12,15,26.40
2023,05,15,12,16,26.40
2023,05,15,12,17,26.50
2023,05,15,12,18,26.50
2023,05,15,12,19,26.60
2023,05,15,12,20,26.50
2023,05,15,12,21,26.50
2023,05,15,12,22,26.60
2023,05,15,12,23,26.70
2023,05,15,12,24,26.80
2023,05,15,12,25,26.90
2023,05,15,12,26,27.00
2023,05,15,12,27,27.10
2023,05,15,12,28,27.20
2023,05,15,12,29,27.30
2023,05,15,12,30,27.20
2023,05,15,12,31,27.20
2023,05,15,12,32,27.10
2023,05,15,12,33,27.00
2023,05,15,12,34,26.90
2023,05,15,12,35,27.00
2023,05,15,12,36,27.00
2023,05,15,12,37,27.00
2023,05,15,12,38,27.00
2023,05,15,12,39,27.00
2023,05,15,12,40,27.10
2023,05,15,12,41,27.10
2023,05,15,12,42,27.20
2023,05,15,12,43,27.30
2023,05,15,12,44,27.30
2023,05,15,12,45,27.20
2023,05,15,12,46,27.10
2023,05,15,12,47,27.00
2023,05,15,12,48,26.90
2023,05,15,12,49,26.90
2023,05,15,12,50,26.90
2023,05,15,12,51,26.90
2023,05,15,12,52,27.00
2023,05,15,12,53,27.10
2023,05,15,12,54,27.10
2023,05,15,12,55,27.20
2023,05,15,12,56,27.10
2023,05,15,12,57,27.00
2023,05,15,12,58,27.10
2023,05,15,12,59,27.10
2023,05,15,13,00,27.10
2023,05,15,13,01,27.00
2023,05,15,13,02,26.90
2023,05,15,13,03,27.00
2023,05,15,13,04,27.10
2023,05,15,13,05,27.20
2023,05,15,13,06,27.30
2023,05,15,13,07,27.40
2023,05,15,13,08,27.40
2023,05,15,13,09,27.40
2023,05,15,13,10,27.40
2023,05,15,13,11,27.40
2023,05,15,13,12,27.40
2023,05,15,13,13,27.40
2023,05,15,13,14,27.40
2023,05,15,13,15,27.40
2023,05,15,13,16,27.40
2023,05,15,13,17,27.40
2023,05,15,13,18,27.50
2023,05,15,13,19,27.60
2023,05,15,13,20,27.60
2023,05,15,13,21,27.60
2023,05,15,13,22,27.50
2023,05,15,13,23,27.60
2023,05,15,13,24,27.60
2023,05,15,13,25,27.60
2023,05,15,13,26,27.70
2023,05,15,13,27,27.80
2023,05,15,13,28,27.80
2023,05,15,13,29,27.80
2023,05,15,13,30,27.80
2023,05,15,13,31,27.80
2023,05,15,13,32,27.80
2023,05,15,13,33,27.90
2023,05,15,13,34,27.90
2023,05,15,13,35,27.90
2023,05,15,13,36,27.90
2023,05,15,13,37,27.90
2023,05,15,13,38,27.90
2023,05,15,13,39,27.80
2023,05,15,13,40,27.90
2023,05,15,13,41,27.90
2023,05,15,13,42,28.00
2023,05,15,13,43,28.10
2023,05,15,13,44,28.20
2023,05,15,13,45,28.30
2023,05,15,13,46,28.30
2023,05,15,13,47,28.40
2023,05,15,13,48,28.60
2023,05,15,13,49,28.70
2023,05,15,13,50,28.80
2023,05,15,13,51,28.90
2023,05,15,13,52,28.90
2023,05,15,13,53,29.00
2023,05,15,13,54,29.00
2023,05,15,13,55,29.00
2023,05,15,13,56,28.90
2023,05,15,13,57,28.90
2023,05,15,13,58,28.90
2023,05,15,13,59,28.90
2023,05,15,14,00,28.90
2023,05,15,14,01,28.90
2023,05,15,14,02,28.90
2023,05,15,14,03,28.90
2023,05,15,14,04,29.00
2023,05,15,14,05,29.00
2023,05,15,14,06,29.10
2023,05,15,14,07,29.20
2023,05,15,14,08,29.30
2023,05,15,14,09,29.30
2023,05,15,14,10,29.30
2023,05,15,14,11,29.30
2023,05,15,14,12,29.30
2023,05,15,14,13,29.40
2023,05,15,14,14,29.50
2023,05,15,14,15,29.50
2023,05,15,14,16,29.60
2023,05,15,14,17,29.60
2023,05,15,14,18,29.60
2023,05,15,14,19,29.60
2023,05,15,14,20,29.50
2023,05,15,14,21,29.40
2023,05,15,14,22,29.30
2023,05,15,14,23,29.30
2023,05,15,14,24,29.20
2023,05,15,14,25,29.20
2023,05,15,14,26,29.20
2023,05,15,14,27,29.30
2023,05,15,14,28,29.30
2023,05,15,14,29,29.30
2023,05,15,14,30,29.30
2023,05,15,14,31,29.20
2023,05,15,14,32,29.20
2023,05,15,14,33,29.20
2023,05,15,14,34,29.30
2023,05,15,14,35,29.40
2023,05,15,14,36,29.40
2023,05,15,14,37,29.50
2023,05,15,14,38,29.60
2023,05,15,14,39,29.60
2023,05,15,14,40,29.70
2023,05,15,14,41,29.70
2023,05,15,14,42,29.80
2023,05,15,14,43,29.80
2023,05,15,14,44,29.80
2023,05,15,14,45,29.70
2023,05,15,14,46,29.70
2023,05,15,14,47,29.80
2023,05,15,14,48,29.90
2023,05,15,14,49,30.10
2023,05,15,14,50,30.20
2023,05,15,14,51,30.30
2023,05,15,14,52,30.30
2023,05,15,14,53,30.30
2023,05,15,14,54,30.30
2023,05,15,14,55,30.20
2023,05,15,14,56,30.20
2023,05,15,14,57,30.10
2023,05,15,14,58,30.10
2023,05,15,14,59,30.00
2023,05,15,15,00,29.80
2023,05,15,15,01,29.70
2023,05,15,15,02,29.60
2023,05,15,15,03,29.60
2023,05,15,15,04,29.60
2023,05,15,15,05,29.60
2023,05,15,15,06,29.60
2023,05,15,15,07,29.60
2023,05,15,15,08,29.60
2023,05,15,15,09,29.70
2023,05,15,15,10,29.70
2023,05,15,15,11,29.70
2023,05,15,15,12,29.80
2023,05,15,15,13,29.80
2023,05,15,15,14,29.80
2023,05,15,15,15,29.80
2023,05,15,15,16,29.90
2023,05,15,15,17,29.90
2023,05,15,15,18,29.90
2023,05,15,15,19,30.00
2023,05,15,15,20,30.00
2023,05,15,15,21,30.00
2023,05,15,15,22,30.00
2023,05,15,15,23,29.90
2023,05,15,15,24,29.90
2023,05,15,15,25,29.90
2023,05,15,15,26,29.80
2023,05,15,15,27,29.80
2023,05,15,15,28,29.80
2023,05,15,15,29,29.80
2023,05,15,15,30,29.80
2023,05,15,15,31,29.80
2023,05,15,15,32,29.80
2023,05,15,15,33,29.80
2023,05,15,15,34,29.90
2023,05,15,15,35,29.90
2023,05,15,15,36,30.00
2023,05,15,15,37,30.10
2023,05,15,15,38,30.10
2023,05,15,15,39,30.20
2023,05,15,15,40,30.20
2023,05,15,15,41,30.20
2023,05,15,15,42,30.10
2023,05,15,15,43,30.10
2023,05,15,15,44,30.10
2023,05,15,15,45,30.00
2023,05,15,15,46,29.90
2023,05,15,15,47,30.00
2023,05,15,15,48,30.00
2023,05,15,15,49,30.00
2023,05,15,15,50,30.10
2023,05,15,15,51,30.10
2023,05,15,15,52,30.10
2023,05,15,15,53,30.10
2023,05,15,15,54,30.10
2023,05,15,15,55,30.10
2023,05,15,15,56,30.10
2023,05,15,15,57,30.10
2023,05,15,15,58,30.10
2023,05,15,15,59,30.10
2023,05,15,16,00,30.10
2023,05,15,16,01,30.10
2023,05,15,16,02,30.00
2023,05,15,16,03,30.00
2023,05,15,16,04,30.00
2023,05,15,16,05,30.00
2023,05,15,16,06,30.00
2023,05,15,16,07,30.10
2023,05,15,16,08,30.20
2023,05,15,16,09,30.30
2023,05,15,16,10,30.40
2023,05,15,16,11,30.40
2023,05,15,16,12,30.40
2023,05,15,16,13,30.50
2023,05,15,16,14,30.50
2023,05,15,16,15,30.50
2023,05,15,16,16,30.50
2023,05,15,16,17,30.50
2023,05,15,16,18,30.50
2023,05,15,16,19,30.40
2023,05,15,16,20,30.40
2023,05,15,16,21,30.40
2023,05,15,16,22,30.50
2023,05,15,16,23,30.50
2023,05,15,16,24,30.50
2023,05,15,16,25,30.50
2023,05,15,16,26,30.50
2023,05,15,16,27,30.50
2023,05,15,16,28,30.50
2023,05,15,16,29,30.50
2023,05,15,16,30,30.60
2023,05,15,16,31,30.60
2023,05,15,16,32,30.60
2023,05,15,16,33,30.70
2023,05,15,16,34,30.80
2023,05,15,16,35,30.80
2023,05,15,16,36,31.00
2023,05,15,16,37,30.90
2023,05,15,16,38,30.90
2023,05,15,16,39,31.00
2023,05,15,16,40,31.00
2023,05,15,16,41,31.10
2023,05,15,16,42,31.20
2023,05,15,16,43,31.30
2023,05,15,16,44,31.30
2023,05,15,16,45,31.30
2023,05,15,16,46,31.20
2023,05,15,16,47,31.10
2023,05,15,16,48,31.10
2023,05,15,16,49,31.10
2023,05,15,16,50,31.10
2023,05,15,16,51,31.20
2023,05,15,16,52,31.20
2023,05,15,16,53,31.20
2023,05,15,16,54,31.20
2023,05,15,16,55,31.20
2023,05,15,16,56,31.30
2023,05,15,16,57,31.20
2023,05,15,16,58,31.20
2023,05,15,16,59,31.10
2023,05,15,17,00,31.10
2023,05,15,17,01,31.00
2023,05,15,17,02,30.90
2023,05,15,17,03,30.80
2023,05,15,17,04,30.70
2023,05,15,17,05,30.70
2023,05,15,17,06,30.60
2023,05,15,17,07,30.60
2023,05,15,17,08,30.60
2023,05,15,17,09,30.70
2023,05,15,17,10,30.70
2023,05,15,17,11,30.60
2023,05,15,17,12,30.60
2023,05,15,17,13,30.50
2023,05,15,17,14,30.50
2023,05,15,17,15,30.40
2023,05,15,17,16,30.40
2023,05,15,17,17,30.30
2023,05,15,17,18,30.30
2023,05,15,17,19,30.30